timestamp,surface_pressure_avg,surface_temp_avg,battery_voltage,lat,long
2020-07-08 00:09:01+00:00,330.8196,14.64,13.29,47.84626,-54.09684
2020-07-08 00:19:01+00:00,333.908,14.7,12.97,47.84626,-54.09684
2020-07-08 00:29:01+00:00,339.653,14.59,12.97,47.84626,-54.09684
2020-07-08 00:39:01+00:00,344.6097,14.3,12.97,47.84626,-54.09684
2020-07-08 00:49:01+00:00,346.6246,14.35,12.97,47.84626,-54.09684
2020-07-08 00:59:01+00:00,350.2579,14.4,12.97,47.84626,-54.09684
2020-07-08 01:09:01+00:00,356.2847,14.4,12.97,47.84626,-54.09684
2020-07-08 01:19:01+00:00,358.2363,14.53,12.73,47.84626,-54.09684
2020-07-08 01:29:01+00:00,356.838,14.69,12.73,47.84626,-54.09684
2020-07-08 01:39:01+00:00,358.4512,14.74,12.73,47.84626,-54.09684
2020-07-08 01:49:01+00:00,361.7413,14.78,12.73,47.84626,-54.09684
2020-07-08 01:59:01+00:00,359.3381,14.85,12.73,47.84626,-54.09684
2020-07-08 02:09:01+00:00,354.3129,14.92,12.73,47.84626,-54.09684
2020-07-08 02:19:01+00:00,353.4247,15.0,12.73,47.84626,-54.09684
2020-07-08 02:29:01+00:00,352.7712,15.0,12.73,47.84626,-54.09684
2020-07-08 02:39:01+00:00,350.3513,15.06,12.73,47.84626,-54.09684
2020-07-08 02:49:01+00:00,347.8345,15.0,12.73,47.84626,-54.09684
2020-07-08 02:59:01+00:00,347.1879,14.8,12.73,47.84626,-54.09684
2020-07-08 03:09:01+00:00,344.1046,14.7,12.73,47.84626,-54.09684
2020-07-08 03:19:01+00:00,338.9913,14.77,12.73,47.84626,-54.09684
2020-07-08 03:29:01+00:00,336.0513,14.7,12.73,47.84626,-54.09684
2020-07-08 03:39:01+00:00,332.0897,14.7,12.73,47.84626,-54.09684
2020-07-08 03:49:01+00:00,322.6329,14.79,12.73,47.84626,-54.09684
2020-07-08 03:59:01+00:00,313.4513,14.8,12.73,47.84626,-54.09684
2020-07-08 04:09:01+00:00,306.3929,14.8,12.73,47.84626,-54.09684
2020-07-08 04:19:01+00:00,300.853,14.8,12.73,47.84626,-54.09684
2020-07-08 04:29:01+00:00,289.6514,14.86,12.73,47.84626,-54.09684
2020-07-08 04:39:01+00:00,279.8814,14.9,12.73,47.84626,-54.09684
2020-07-08 04:49:01+00:00,272.7497,14.9,12.73,47.84626,-54.09684
2020-07-08 04:59:01+00:00,265.8297,14.95,12.73,47.84626,-54.09684
2020-07-08 05:09:01+00:00,253.7397,14.99,12.73,47.84626,-54.09684
2020-07-08 05:19:01+00:00,241.3731,15.0,12.73,47.84626,-54.09684
2020-07-08 05:29:01+00:00,232.9814,15.0,12.73,47.84626,-54.09684
2020-07-08 05:39:01+00:00,225.1281,15.0,12.73,47.84626,-54.09684
2020-07-08 05:49:01+00:00,214.8914,15.0,12.73,47.84626,-54.09684
2020-07-08 05:59:01+00:00,207.1747,15.08,12.73,47.84626,-54.09684
2020-07-08 06:09:01+00:00,204.9331,15.1,12.73,47.84626,-54.09684
2020-07-08 06:19:01+00:00,199.3331,15.1,12.65,47.84626,-54.09684
2020-07-08 06:29:01+00:00,191.5214,15.16,12.65,47.84626,-54.09684
2020-07-08 06:39:01+00:00,189.3365,15.2,12.65,47.84626,-54.09684
2020-07-08 06:49:01+00:00,191.5065,15.2,12.65,47.84626,-54.09684
2020-07-08 06:59:01+00:00,186.1614,15.24,12.65,47.84626,-54.09684
2020-07-08 07:09:01+00:00,183.5681,15.3,12.65,47.84626,-54.09684
2020-07-08 07:19:01+00:00,185.0348,15.3,12.65,47.84626,-54.09684
2020-07-08 07:29:01+00:00,181.0998,15.3,12.65,47.84626,-54.09684
2020-07-08 07:39:01+00:00,177.1182,15.33,12.65,47.84626,-54.09684
2020-07-08 07:49:01+00:00,178.6265,15.3,12.65,47.84626,-54.09684
2020-07-08 07:59:01+00:00,180.8598,15.3,12.65,47.84626,-54.09684
2020-07-08 08:09:01+00:00,179.9215,15.3,12.65,47.84626,-54.09684
2020-07-08 08:19:01+00:00,182.0798,15.3,12.65,47.84626,-54.09684
2020-07-08 08:29:01+00:00,188.3081,15.3,12.65,47.84626,-54.09684
2020-07-08 08:39:01+00:00,191.3248,15.3,12.65,47.84626,-54.09684
2020-07-08 08:49:01+00:00,193.0064,15.3,12.65,47.84626,-54.09684
2020-07-08 08:59:01+00:00,197.7398,15.3,12.65,47.84626,-54.09684
2020-07-08 09:09:01+00:00,201.9381,15.3,12.65,47.84626,-54.09684
2020-07-08 09:19:01+00:00,204.0764,15.3,12.65,47.84626,-54.09684
2020-07-08 09:29:01+00:00,208.2448,15.3,12.65,47.84626,-54.09684
2020-07-08 09:39:01+00:00,215.2864,15.28,12.65,47.84626,-54.09684
2020-07-08 09:49:01+00:00,218.7898,15.2,12.65,47.84626,-54.09684
2020-07-08 09:59:01+00:00,216.7731,15.28,12.65,47.84626,-54.09684
2020-07-08 10:09:01+00:00,218.4614,15.3,12.65,47.84626,-54.09684
2020-07-08 10:19:01+00:00,224.2865,15.3,12.65,47.84626,-54.09684
2020-07-08 10:29:01+00:00,226.6797,15.3,12.65,47.84626,-54.09684
2020-07-08 10:39:01+00:00,230.0664,15.3,12.65,47.84626,-54.09684
2020-07-08 10:49:01+00:00,235.7831,15.29,12.65,47.84626,-54.09684
2020-07-08 10:59:01+00:00,240.3764,15.28,12.65,47.84626,-54.09684
2020-07-08 11:09:01+00:00,241.9897,15.25,12.65,47.84626,-54.09684
2020-07-08 11:19:01+00:00,245.2981,15.25,12.89,47.84626,-54.09684
2020-07-08 11:29:01+00:00,253.9031,15.2,12.89,47.84626,-54.09684
2020-07-08 11:39:01+00:00,263.4781,15.2,12.89,47.84626,-54.09684
2020-07-08 11:49:01+00:00,267.9181,15.2,12.89,47.84626,-54.09684
2020-07-08 11:59:01+00:00,271.5164,15.2,12.89,47.84626,-54.09684
2020-07-08 12:09:01+00:00,279.043,15.2,12.89,47.84626,-54.09684
2020-07-08 12:19:01+00:00,286.4664,15.16,13.21,47.84626,-54.09684
2020-07-08 12:29:01+00:00,290.9581,15.1,13.21,47.84626,-54.09684
2020-07-08 12:39:01+00:00,296.688,15.04,13.21,47.84626,-54.09684
2020-07-08 12:49:01+00:00,304.1897,15.07,13.21,47.84626,-54.09684
2020-07-08 12:59:01+00:00,310.1779,15.1,13.21,47.84626,-54.09684
2020-07-08 13:09:01+00:00,313.9664,15.1,13.21,47.84626,-54.09684
2020-07-08 13:19:01+00:00,316.1213,15.14,13.6,47.84626,-54.09684
2020-07-08 13:29:01+00:00,318.5929,15.19,13.6,47.84626,-54.09684
2020-07-08 13:39:01+00:00,321.488,15.2,13.6,47.84626,-54.09684
2020-07-08 13:49:01+00:00,321.9864,15.2,13.6,47.84626,-54.09684
2020-07-08 13:59:01+00:00,321.1146,15.2,13.6,47.84626,-54.09684
2020-07-08 14:09:01+00:00,321.1496,15.23,13.6,47.84626,-54.09684
2020-07-08 14:19:01+00:00,321.9597,15.24,14.48,47.84626,-54.09684
2020-07-08 14:29:01+00:00,318.9597,15.27,14.48,47.84626,-54.09684
2020-07-08 14:39:01+00:00,317.7264,15.29,14.48,47.84626,-54.09684
2020-07-08 14:49:01+00:00,317.7146,15.3,14.48,47.84626,-54.09684
2020-07-08 14:59:01+00:00,314.8947,15.3,14.48,47.84626,-54.09684
2020-07-08 15:09:01+00:00,310.473,15.3,14.48,47.84626,-54.09684
2020-07-08 15:19:01+00:00,306.6397,15.33,14.4,47.84626,-54.09684
2020-07-08 15:29:01+00:00,304.7897,15.36,14.4,47.84626,-54.09684
2020-07-08 15:39:01+00:00,302.5146,15.36,14.4,47.84626,-54.09684
2020-07-08 15:49:01+00:00,299.0863,15.39,14.4,47.84626,-54.09684
2020-07-08 15:59:01+00:00,296.358,15.4,14.4,47.84626,-54.09684
2020-07-08 16:09:01+00:00,291.8713,15.4,14.4,47.84626,-54.09684
2020-07-08 16:19:01+00:00,285.8714,15.4,14.32,47.84626,-54.09684
2020-07-08 16:29:01+00:00,282.4531,15.48,14.32,47.84626,-54.09684
2020-07-08 16:39:01+00:00,278.1314,15.49,14.32,47.84626,-54.09684
2020-07-08 16:49:01+00:00,269.2297,15.5,14.32,47.84626,-54.09684
2020-07-08 16:59:01+00:00,260.7598,15.5,14.32,47.84626,-54.09684
2020-07-08 17:09:01+00:00,256.8914,15.5,14.32,47.84626,-54.09684
2020-07-08 17:19:01+00:00,247.8197,15.5,14.16,47.84626,-54.09684
2020-07-08 17:29:01+00:00,236.0781,15.5,14.16,47.84626,-54.09684
2020-07-08 17:39:01+00:00,228.4898,15.52,14.16,47.84626,-54.09684
2020-07-08 17:49:01+00:00,220.7231,15.54,14.16,47.84626,-54.09684
2020-07-08 17:59:01+00:00,207.6214,15.57,14.16,47.84626,-54.09684
2020-07-08 18:09:01+00:00,197.2798,15.6,14.16,47.84626,-54.09684
2020-07-08 18:19:01+00:00,192.7265,15.6,13.92,47.84626,-54.09684
2020-07-08 18:29:01+00:00,184.6898,15.6,13.92,47.84626,-54.09684
2020-07-08 18:39:01+00:00,178.0098,15.61,13.92,47.84626,-54.09684
2020-07-08 18:49:01+00:00,176.5531,15.62,13.92,47.84626,-54.09684
2020-07-08 18:59:01+00:00,174.7365,15.64,13.92,47.84626,-54.09684
2020-07-08 19:09:01+00:00,171.1648,15.66,13.92,47.84626,-54.09684
2020-07-08 19:19:01+00:00,169.8882,15.68,13.84,47.84626,-54.09684
2020-07-08 19:29:01+00:00,172.9698,15.69,13.84,47.84626,-54.09684
2020-07-08 19:39:01+00:00,173.2098,15.7,13.84,47.84626,-54.09684
2020-07-08 19:49:01+00:00,174.2581,15.7,13.84,47.84626,-54.09684
2020-07-08 19:59:01+00:00,179.6448,15.7,13.84,47.84626,-54.09684
2020-07-08 20:09:01+00:00,182.4731,15.74,13.84,47.84626,-54.09684
2020-07-08 20:19:01+00:00,182.6064,15.79,13.76,47.84626,-54.09684
2020-07-08 20:29:01+00:00,184.0881,15.81,13.76,47.84626,-54.09684
2020-07-08 20:39:01+00:00,189.5848,15.88,13.76,47.84626,-54.09684
2020-07-08 20:49:01+00:00,191.7131,15.89,13.76,47.84626,-54.09684
2020-07-08 20:59:01+00:00,189.4498,15.9,13.76,47.84626,-54.09684
2020-07-08 21:09:01+00:00,194.6965,15.9,13.76,47.84626,-54.09684
2020-07-08 21:19:01+00:00,202.0331,15.9,13.68,47.84626,-54.09684
2020-07-08 21:29:01+00:00,204.2548,15.9,13.68,47.84626,-54.09684
2020-07-08 21:39:01+00:00,205.5648,15.9,13.68,47.84626,-54.09684
2020-07-08 21:49:01+00:00,210.4748,15.9,13.68,47.84626,-54.09684
2020-07-08 21:59:01+00:00,216.3831,15.9,13.68,47.84626,-54.09684
2020-07-08 22:09:01+00:00,220.5764,15.9,13.68,47.84626,-54.09684
2020-07-08 22:19:01+00:00,225.4598,15.9,13.53,47.84626,-54.09684
2020-07-08 22:29:01+00:00,231.5915,15.89,13.53,47.84626,-54.09684
2020-07-08 22:39:01+00:00,237.0748,15.89,13.53,47.84626,-54.09684
2020-07-08 22:49:01+00:00,243.5481,15.9,13.53,47.84626,-54.09684
2020-07-08 22:59:01+00:00,250.0981,15.9,13.53,47.84626,-54.09684
2020-07-08 23:09:01+00:00,255.5497,15.9,13.53,47.84626,-54.09684
2020-07-08 23:19:01+00:00,260.933,15.9,13.21,47.84626,-54.09684
2020-07-08 23:29:01+00:00,267.9331,15.9,13.21,47.84626,-54.09684
2020-07-08 23:39:01+00:00,274.2198,15.9,13.21,47.84626,-54.09684
2020-07-08 23:49:01+00:00,277.7547,15.88,13.21,47.84626,-54.09684
2020-07-08 23:59:01+00:00,284.063,15.8,13.21,47.84626,-54.09684
